BREEZE-M DEB, 32041

Orbit data source: Space-Track

BREEZE-M DEB, 32041 is space debris originally from a launch on Tue, 28 Feb 2006 UTC launched from the Tyuratam Missile And Space Complex (TTMTR). Debris objects in space refer to the collection of defunct objects orbiting the Earth. Examples of debris include non-operational satellites, rocket bodies, and fragments generated from explosions, collisions, or faulty payload assembly.

Loading next visibility...
Identifier
32041, 2006-006U
Orbit
Active
Country
Flag of CISCIS
Related business
Manufacturer
Khrunichev
Mission
Spacecraft
Bus & Motor
Unknown
Mass
Unknown
Launch date (UTC)
2006-02-28 (20 years ago)
Launch vehicle
Unknown
Launch site
Tyuratam Missile And Space Complex (TTMTR)
Object type
Payload
Rocket body
Debris
Shape & HBR
Unknown shape, 0.1 m
Radar Cross Section
Medium (>0.1 m² and <1 m²)

Expand to show TLE details & history
Last TLE update: 5 days ago

TLE from 5 days ago
0 BREEZE-M DEB
1 32041U 06006U   26158.11370568  .00055001  00000-0  86907-2 0  9998
2 32041  51.7086 292.0925 3783404 155.2783   7.8251  7.73099807437117
Epoch: 2026-06-07T02:43Z
TLE epoch observation values (Epoch: 2026-06-07T02:43:44.170Z)
Latitude
4.80133°
Longitude
171.85891°
Altitude
435.073 km
Speed
8.952 km/s
True Right ascension
07h 13m 15s
True Declination
4° 46' 17"
Sunlit
Object was in daylight at epoch
Visualization orbit readout
Latitude
Unknown
Longitude
Unknown
Altitude
Unknown
Speed
Unknown
Apparent Right ascension
Unknown
Apparent Declination
Unknown
Sunlit
N/A
Visualization observer readout
Local Sidereal Time
18:20:10
Azimuth
Unknown
Elevation
Unknown
Doppler factor
Unknown
Orbital elements
Apogee altitude
8,513.779 km
Perigee altitude
338.421 km
Semi-major axis
10,804.237 km
Eccentricity
0.37834
Inclination
51.7086°
RAAN
292.0925°
Arg. of periapsis
155.2783°
True anomaly
18.56333°
Mean anomaly
7.8251°
Eccentric anomaly
12.52684°
Mean motion
1.93264 °/min
Orbital period
186.27 mins
BSTAR
0.0086907
Loading maneuver chart data...
Computing Atmospheric mass density...
Loading historical data...
Loading historical data...
Loading historical data...
Loading historical data...
Loading historical data...
Loading historical data...
Loading historical data...

Documentation

Showing up to 5 results
|